TimeCST,TemperatureF,Dew PointF,Humidity,Sea Level PressureIn,VisibilityMPH,Wind Direction,Wind SpeedMPH,Gust SpeedMPH,PrecipitationIn,Events,Conditions,WindDirDegrees,DateUTC
12:52 AM,61.0,57.9,90,29.99,9.0,ESE,3.5,-,N/A,,Clear,110,2013-02-19 06:52:00
1:52 AM,59.0,57.0,93,30.00,8.0,ESE,3.5,-,N/A,,Clear,110,2013-02-19 07:52:00
2:52 AM,57.9,55.9,93,30.00,6.0,Calm,Calm,-,N/A,,Clear,0,2013-02-19 08:52:00
3:52 AM,57.9,55.9,93,30.01,4.0,East,3.5,-,N/A,,Clear,80,2013-02-19 09:52:00
4:01 AM,57.2,55.4,94,30.01,2.5,East,3.5,-,N/A,,Clear,80,2013-02-19 10:01:00
4:09 AM,57.2,55.4,94,30.01,5.0,ENE,3.5,-,N/A,,Clear,70,2013-02-19 10:09:00
4:52 AM,57.0,55.9,96,30.03,3.0,Calm,Calm,-,N/A,,Clear,0,2013-02-19 10:52:00
5:32 AM,55.4,55.4,100,30.03,6.0,ESE,4.6,-,N/A,,Mostly Cloudy,110,2013-02-19 11:32:00
5:52 AM,55.0,54.0,96,30.04,4.0,East,4.6,-,N/A,,Overcast,90,2013-02-19 11:52:00
5:58 AM,55.4,53.6,94,30.04,1.5,East,5.8,-,N/A,,Overcast,90,2013-02-19 11:58:00
6:07 AM,55.4,55.4,100,30.04,0.5,East,5.8,-,N/A,Fog,Fog,90,2013-02-19 12:07:00
6:30 AM,55.4,55.4,100,30.05,0.5,East,5.8,-,N/A,Fog,Fog,80,2013-02-19 12:30:00
6:43 AM,55.4,55.4,100,30.05,0.2,East,5.8,-,N/A,Fog,Fog,80,2013-02-19 12:43:00
6:52 AM,55.9,55.9,100,30.05,0.5,ENE,5.8,-,N/A,Fog,Fog,70,2013-02-19 12:52:00
7:03 AM,57.2,55.4,94,30.06,0.2,East,5.8,-,N/A,Fog,Fog,80,2013-02-19 13:03:00
7:33 AM,57.2,57.2,100,30.08,0.2,NNE,12.7,-,N/A,Fog,Fog,30,2013-02-19 13:33:00
7:40 AM,60.8,60.8,100,30.08,1.0,NE,6.9,-,N/A,,Overcast,40,2013-02-19 13:40:00
7:43 AM,60.8,60.8,100,30.09,3.0,NNE,15.0,-,N/A,,Overcast,30,2013-02-19 13:43:00
7:52 AM,62.1,62.1,100,30.09,6.0,NNE,10.4,-,N/A,,Mostly Cloudy,20,2013-02-19 13:52:00
7:59 AM,62.6,62.6,100,30.10,7.0,NNE,10.4,-,N/A,,Overcast,30,2013-02-19 13:59:00
8:52 AM,64.9,62.1,90,30.12,10.0,NE,16.1,-,N/A,,Overcast,50,2013-02-19 14:52:00
9:50 AM,69.8,60.8,73,30.14,10.0,ENE,15.0,-,N/A,,Overcast,60,2013-02-19 15:50:00
9:52 AM,69.1,60.1,73,30.14,10.0,ENE,12.7,-,N/A,,Overcast,60,2013-02-19 15:52:00
10:09 AM,71.6,60.8,69,30.14,10.0,NE,15.0,-,N/A,,Mostly Cloudy,50,2013-02-19 16:09:00
10:52 AM,72.0,60.1,66,30.15,10.0,ENE,15.0,-,N/A,,Overcast,60,2013-02-19 16:52:00
12:20 PM,73.4,60.8,65,30.13,10.0,East,18.4,-,N/A,,Mostly Cloudy,80,2013-02-19 18:20:00
12:52 PM,73.0,60.1,64,30.12,10.0,East,17.3,-,N/A,,Overcast,80,2013-02-19 18:52:00
1:29 PM,73.4,59.0,61,30.10,10.0,ENE,20.7,-,N/A,,Scattered Clouds,70,2013-02-19 19:29:00
1:52 PM,73.0,60.1,64,30.09,10.0,East,20.7,-,N/A,,Scattered Clouds,80,2013-02-19 19:52:00
2:52 PM,73.0,59.0,61,30.06,10.0,East,21.9,26.5,N/A,,Scattered Clouds,80,2013-02-19 20:52:00
3:52 PM,71.1,59.0,66,30.05,10.0,East,21.9,28.8,N/A,,Partly Cloudy,90,2013-02-19 21:52:00
4:52 PM,70.0,59.0,68,30.04,10.0,East,20.7,25.3,N/A,,Clear,100,2013-02-19 22:52:00
6:52 PM,66.9,60.1,79,30.02,10.0,East,18.4,-,N/A,,Partly Cloudy,100,2013-02-20 00:52:00
7:52 PM,66.0,61.0,84,30.04,10.0,East,13.8,-,N/A,,Clear,90,2013-02-20 01:52:00
8:28 PM,66.2,60.8,83,30.04,10.0,East,13.8,-,N/A,,Mostly Cloudy,90,2013-02-20 02:28:00
8:52 PM,66.2,60.8,83,30.06,10.0,ESE,15.0,-,N/A,,Overcast,110,2013-02-20 02:52:00
9:08 PM,66.2,60.8,83,30.06,10.0,ESE,15.0,-,N/A,,Overcast,110,2013-02-20 03:08:00
9:52 PM,66.9,62.1,84,30.06,10.0,ESE,12.7,-,N/A,,Overcast,110,2013-02-20 03:52:00
10:41 PM,66.2,62.6,88,30.04,10.0,ESE,12.7,-,N/A,,Mostly Cloudy,110,2013-02-20 04:41:00
10:52 PM,66.9,62.1,84,30.03,10.0,ESE,15.0,-,N/A,,Mostly Cloudy,110,2013-02-20 04:52:00
11:05 PM,66.2,62.6,88,30.03,10.0,ESE,12.7,-,N/A,,Overcast,110,2013-02-20 05:05:00
11:44 PM,66.2,62.6,88,30.00,10.0,ESE,12.7,-,N/A,,Mostly Cloudy,110,2013-02-20 05:44:00
11:52 PM,66.0,62.1,87,30.00,10.0,ESE,12.7,-,N/A,,Mostly Cloudy,110,2013-02-20 05:52:00